Location: Eastchurch
(51.4000°N, 0.8667°E)
Time: 23:30:10
(UTC+00:00)

NOSS 3-1 (A) - Pass Details

Date: 19 January 2026
Orbit: 613 x 1593 km, 63.4° (Epoch: 10 January)

Event Time Altitude Azimuth Distance (km) Brightness Sun altitude
Rises 17:59:59 0° 311° (NW) 3,524 6.9 -14.6°
Reaches altitude 10° 18:02:23 10° 317° (NW) 2,710 6.2 -14.9°
Maximum altitude 18:08:38 48° 32° (NNE) 1,470 4.1 -15.9°
Enters shadow 18:13:44 21° 96° (E) 2,524 5.1 -16.6°
